Regional Weather Roundup
Issued by NWS

Home | Current Version | Previous Version | Graphics & Text | Print | Product List | Glossary On
Versions: 1 2 3 4 5 6 7 8 9 10 11 12 13 14 15 16 17 18 19 20 21 22 23 24 25 26 27
000
ASUS45 KSLC 272210
RWRUT

UTAH REGIONAL WEATHER ROUNDUP
NATIONAL WEATHER SERVICE SALT LAKE CITY UT
400 PM MDT SAT AUG 27 2016

UTZ001>011-023>025-272300-

NORTHERN UTAH

CITY           SKY/WX    TMP DP  RH WIND       PRES   REMARKS
BRIGHAM CITY     N/A     85  20   9 S8        30.02F
HILL AFB       SUNNY     83  25  12 W10G16    30.05F
LOGAN          SUNNY     83  26  12 W9        30.02F
OGDEN          SUNNY     83  27  13 W5        30.03F
PROVO AIRPORT  MOSUNNY   84  34  16 MISG      30.02F
SALT LAKE CITY MOSUNNY   89  25  10 NW14G21   30.00F
VERNAL         SUNNY     79  37  22 SW8       30.08F
WENDOVER       SUNNY     86  28  12 SE13      30.00F
HEBER CITY     SUNNY     82  27  13 SW5G17    30.06F
WEST JORDAN    SUNNY     83  37  18 N9        30.03F

$$

UTZ012>022-026-027-272300-

SOUTHERN/CENTRAL UTAH

CITY           SKY/WX    TMP DP  RH WIND       PRES   REMARKS
BLANDING       CLOUDY    70  47  44 S10       30.26S
BRYCE CANYON   LGT RAIN  54  47  77 VRB3      30.31F
CEDAR CITY     CLOUDY    67  48  50 SW6       30.16F
MILFORD        CLOUDY    77  43  29 S16       30.10F
MOAB/CYNLANDS  CLOUDY    79  43  27 SE8       30.07F
PRICE          MOSUNNY   77  38  24 S9        30.13F
ST GEORGE      CLEAR     75  52  43 S8        30.08F

$$

REGIONAL REPORTS     COLORADO/ARIZONA

CITY           SKY/WX    TMP DP  RH WIND       PRES   REMARKS
CRAIG, CO      SUNNY     80  25  13 SW8G20    30.14F
GRAND JUNCTION CLOUDY    77  41  27 W5        30.10F
RIFLE          CLOUDY    79  44  28 N6        30.13F
MONTROSE       CLOUDY    69  48  47 W8        30.20R
CORTEZ         CLOUDY    69  49  48 W14       30.18F
PAGE, AZ       CLOUDY    70  52  52 N7        30.12F
GRAND CANYON   CLOUDY    64  48  56 W7        30.23F
KINGMAN        CLOUDY    73  53  49 SE6       30.07F
FLAGSTAFF      PTSUNNY   66  46  48 W10G20    30.25F

$$

REGIONAL REPORTS    NEVADA/IDAHO/WYOMING

CITY           SKY/WX    TMP DP  RH WIND       PRES   REMARKS
LAS VEGAS, NV  MOSUNNY   87  46  24 NE6       29.94F
ELY            SUNNY     82  25  12 N9        30.12F
ELKO           SUNNY     86  13   6 W7G18     30.05F
POCATELLO, ID  SUNNY     84  26  12 W18       30.00F
BURLEY         SUNNY     82  37  20 W12       29.97F
EVANSTON, WY   SUNNY     76  19  11 W20       30.18F
ROCK SPRINGS   SUNNY     76  18  11 SW10G22   30.13F

$$




USA.gov is the U.S. government's official web portal to all federal, state and local government web resources and services.